START_TIME,STEP,MOV.,P1,t_acc.,E44,t_acc.,A3,t_acc.,P10,t_acc.
1980-11-14 00:00:11.790 ,3,0,0.,1.2,0.,1.2,0.,1.2,0.,1.2
1980-11-14 00:00:12.990 ,3,0,0.,1.2,0.,1.2,0.,1.2,0.,1.2
1980-11-14 00:00:14.190 ,3,0,0.,1.2,0.,1.2,0.,1.2,0.,1.2
1980-11-14 00:00:15.390 ,3,0,0.,1.2,0.,1.2,0.,1.2,0.,1.2
1980-11-14 00:00:16.590 ,3,0,0.,1.2,0.,1.2,0.,1.2,0.,1.2
1980-11-14 00:00:17.790 ,3,0,0.,1.2,0.,1.2,0.,1.2,0.,1.2
1980-11-14 00:00:18.990 ,3,0,0.,1.2,0.,1.2,0.,1.2,0.,1.2
1980-11-14 00:00:20.190 ,3,0,1.,1.2,0.,1.2,1.,1.2,1.,1.2
1980-11-14 00:00:21.390 ,3,0,0.,1.2,0.,1.2,0.,1.2,0.,1.2
1980-11-14 00:00:22.590 ,3,0,0.,1.2,0.,1.2,0.,1.2,0.,1.2
1980-11-14 00:00:23.790 ,3,0,0.,1.2,0.,1.2,0.,1.2,0.,1.2
1980-11-14 00:00:24.990 ,3,0,0.,1.2,0.,1.2,0.,1.2,0.,1.2
1980-11-14 00:00:26.190 ,3,0,0.,1.2,0.,1.2,0.,1.2,0.,1.2
1980-11-14 00:00:27.390 ,3,0,0.,1.2,0.,1.2,0.,1.2,0.,1.2
1980-11-14 00:00:28.590 ,3,0,0.,1.2,0.,1.2,0.,1.2,0.,1.2
1980-11-14 00:00:29.790 ,3,0,0.,1.2,0.,1.2,0.,1.2,0.,1.2
1980-11-14 00:00:30.990 ,3,0,0.,1.2,0.,1.2,0.,1.2,0.,1.2
1980-11-14 00:00:32.190 ,3,0,0.,1.2,0.,1.2,0.,1.2,0.,1.2
1980-11-14 00:00:33.390 ,3,0,0.,1.2,0.,1.2,0.,1.2,0.,1.2
1980-11-14 00:00:34.590 ,3,0,0.,1.2,0.,1.2,0.,1.2,0.,1.2
1980-11-14 00:00:35.790 ,4,0,1.,1.2,0.,1.2,0.,1.2,0.,1.2
1980-11-14 00:00:36.990 ,4,0,2.,1.2,0.,1.2,0.,1.2,0.,1.2
1980-11-14 00:00:38.190 ,4,0,1.,1.2,0.,1.2,0.,1.2,0.,1.2
1980-11-14 00:00:39.390 ,4,0,0.,1.2,0.,1.2,0.,1.2,0.,1.2
1980-11-14 00:00:40.590 ,4,0,0.,1.2,0.,1.2,0.,1.2,0.,1.2
1980-11-14 00:00:41.790 ,4,0,0.,1.2,0.,1.2,0.,1.2,0.,1.2
1980-11-14 00:00:42.990 ,4,0,0.,1.2,0.,1.2,0.,1.2,0.,1.2
1980-11-14 00:00:44.190 ,4,0,0.,1.2,0.,1.2,0.,1.2,0.,1.2
1980-11-14 00:00:45.390 ,4,0,0.,1.2,0.,1.2,0.,1.2,0.,1.2
1980-11-14 00:00:46.590 ,4,0,0.,1.2,0.,1.2,0.,1.2,0.,1.2
1980-11-14 00:00:47.790 ,4,0,1.,1.2,0.,1.2,0.,1.2,0.,1.2
1980-11-14 00:00:48.990 ,4,0,0.,1.2,0.,1.2,0.,1.2,0.,1.2
1980-11-14 00:00:50.190 ,4,0,0.,1.2,0.,1.2,0.,1.2,0.,1.2
1980-11-14 00:00:51.390 ,4,0,0.,1.2,0.,1.2,0.,1.2,0.,1.2
1980-11-14 00:00:52.590 ,4,0,1.,1.2,0.,1.2,0.,1.2,0.,1.2
1980-11-14 00:00:53.790 ,4,0,0.,1.2,0.,1.2,0.,1.2,0.,1.2
1980-11-14 00:00:54.990 ,4,0,0.,1.2,0.,1.2,0.,1.2,0.,1.2
1980-11-14 00:00:56.190 ,4,0,0.,1.2,0.,1.2,0.,1.2,0.,1.2
1980-11-14 00:00:57.390 ,4,0,0.,1.2,0.,1.2,0.,1.2,0.,1.2
1980-11-14 00:00:58.590 ,4,0,0.,1.2,0.,1.2,0.,1.2,0.,1.2
1980-11-14 00:00:59.790 ,4,0,0.,1.2,0.,1.2,0.,1.2,0.,1.2
1980-11-14 00:01:00.990 ,4,0,1.,1.2,0.,1.2,0.,1.2,0.,1.2
1980-11-14 00:01:02.190 ,4,0,0.,1.2,0.,1.2,0.,1.2,0.,1.2
1980-11-14 00:01:03.390 ,4,0,0.,1.2,0.,1.2,0.,1.2,0.,1.2
1980-11-14 00:01:04.590 ,4,0,0.,1.2,0.,1.2,0.,1.2,0.,1.2
1980-11-14 00:01:05.790 ,4,0,0.,1.2,0.,1.2,0.,1.2,0.,1.2
1980-11-14 00:01:06.990 ,4,0,0.,1.2,0.,1.2,0.,1.2,0.,1.2
1980-11-14 00:01:08.190 ,4,0,0.,1.2,0.,1.2,0.,1.2,0.,1.2
1980-11-14 00:01:09.390 ,4,0,0.,1.2,0.,1.2,0.,1.2,0.,1.2
1980-11-14 00:01:10.590 ,4,0,0.,1.2,0.,1.2,0.,1.2,0.,1.2
1980-11-14 00:01:11.790 ,4,0,0.,1.2,0.,1.2,0.,1.2,0.,1.2
1980-11-14 00:01:12.990 ,4,0,1.,1.2,0.,1.2,0.,1.2,0.,1.2
1980-11-14 00:01:14.190 ,4,0,0.,1.2,0.,1.2,0.,1.2,0.,1.2
1980-11-14 00:01:15.390 ,4,0,0.,1.2,0.,1.2,0.,1.2,0.,1.2
1980-11-14 00:01:16.590 ,4,0,0.,1.2,0.,1.2,0.,1.2,0.,1.2
1980-11-14 00:01:17.790 ,4,0,1.,1.2,0.,1.2,0.,1.2,0.,1.2
1980-11-14 00:01:18.990 ,4,0,0.,1.2,0.,1.2,0.,1.2,0.,1.2
1980-11-14 00:01:20.190 ,4,0,1.,1.2,0.,1.2,0.,1.2,0.,1.2
1980-11-14 00:01:21.390 ,4,0,0.,1.2,0.,1.2,0.,1.2,0.,1.2
1980-11-14 00:01:22.590 ,4,0,0.,1.2,0.,1.2,0.,1.2,0.,1.2
1980-11-14 00:01:23.790 ,5,0,0.,1.2,0.,1.2,0.,1.2,0.,1.2
1980-11-14 00:01:24.990 ,5,0,0.,1.2,0.,1.2,1.,1.2,0.,1.2
1980-11-14 00:01:26.190 ,5,0,0.,1.2,0.,1.2,0.,1.2,0.,1.2
1980-11-14 00:01:27.390 ,5,0,0.,1.2,0.,1.2,0.,1.2,0.,1.2
1980-11-14 00:01:28.590 ,5,0,0.,1.2,0.,1.2,0.,1.2,1.,1.2
1980-11-14 00:01:29.790 ,5,0,1.,1.2,0.,1.2,0.,1.2,0.,1.2
1980-11-14 00:01:30.990 ,5,0,0.,1.2,0.,1.2,0.,1.2,0.,1.2
1980-11-14 00:01:32.190 ,5,0,0.,1.2,0.,1.2,0.,1.2,0.,1.2
1980-11-14 00:01:33.390 ,5,0,0.,1.2,0.,1.2,0.,1.2,0.,1.2
1980-11-14 00:01:34.590 ,5,0,0.,1.2,0.,1.2,0.,1.2,0.,1.2
1980-11-14 00:01:35.790 ,5,0,0.,1.2,0.,1.2,0.,1.2,0.,1.2
1980-11-14 00:01:36.990 ,5,0,0.,1.2,0.,1.2,0.,1.2,0.,1.2
1980-11-14 00:01:38.190 ,5,0,0.,1.2,0.,1.2,0.,1.2,0.,1.2
1980-11-14 00:01:39.390 ,5,0,1.,1.2,0.,1.2,0.,1.2,0.,1.2
1980-11-14 00:01:40.590 ,5,0,0.,1.2,0.,1.2,0.,1.2,0.,1.2
1980-11-14 00:01:41.790 ,5,0,0.,1.2,0.,1.2,0.,1.2,0.,1.2
1980-11-14 00:01:42.990 ,5,0,0.,1.2,0.,1.2,0.,1.2,0.,1.2
1980-11-14 00:01:44.190 ,5,0,0.,1.2,0.,1.2,0.,1.2,0.,1.2
1980-11-14 00:01:45.390 ,5,0,0.,1.2,0.,1.2,0.,1.2,0.,1.2
1980-11-14 00:01:46.590 ,5,0,0.,1.2,0.,1.2,0.,1.2,0.,1.2
1980-11-14 00:01:47.790 ,5,0,2.,1.2,0.,1.2,0.,1.2,0.,1.2
1980-11-14 00:01:48.990 ,5,0,0.,1.2,0.,1.2,0.,1.2,0.,1.2
1980-11-14 00:01:50.190 ,5,0,0.,1.2,0.,1.2,0.,1.2,0.,1.2
1980-11-14 00:01:51.390 ,5,0,1.,1.2,0.,1.2,0.,1.2,0.,1.2
1980-11-14 00:01:52.590 ,5,0,0.,1.2,0.,1.2,0.,1.2,0.,1.2
1980-11-14 00:01:53.790 ,5,0,0.,1.2,0.,1.2,0.,1.2,0.,1.2
1980-11-14 00:01:54.990 ,5,0,1.,1.2,0.,1.2,0.,1.2,0.,1.2
1980-11-14 00:01:56.190 ,5,0,1.,1.2,0.,1.2,0.,1.2,0.,1.2
1980-11-14 00:01:57.390 ,5,0,0.,1.2,0.,1.2,0.,1.2,0.,1.2
1980-11-14 00:01:58.590 ,5,0,0.,1.2,0.,1.2,0.,1.2,0.,1.2
1980-11-14 00:01:59.790 ,5,0,1.,1.2,0.,1.2,0.,1.2,0.,1.2
1980-11-14 00:02:00.990 ,5,0,1.,1.2,0.,1.2,0.,1.2,0.,1.2
1980-11-14 00:02:02.190 ,5,0,0.,1.2,0.,1.2,0.,1.2,0.,1.2
1980-11-14 00:02:03.390 ,5,0,0.,1.2,0.,1.2,0.,1.2,0.,1.2
1980-11-14 00:02:04.590 ,5,0,0.,1.2,0.,1.2,0.,1.2,0.,1.2
1980-11-14 00:02:05.790 ,5,0,0.,1.2,0.,1.2,0.,1.2,0.,1.2
1980-11-14 00:02:06.990 ,5,0,0.,1.2,0.,1.2,0.,1.2,0.,1.2
1980-11-14 00:02:08.190 ,5,0,0.,1.2,0.,1.2,0.,1.2,0.,1.2
1980-11-14 00:02:09.390 ,5,0,1.,1.2,0.,1.2,0.,1.2,0.,1.2
1980-11-14 00:02:10.590 ,5,0,0.,1.2,0.,1.2,0.,1.2,0.,1.2
1980-11-14 00:02:11.790 ,6,0,0.,1.2,0.,1.2,0.,1.2,0.,1.2
1980-11-14 00:02:12.990 ,6,0,0.,1.2,0.,1.2,0.,1.2,0.,1.2
1980-11-14 00:02:14.190 ,6,0,0.,1.2,0.,1.2,0.,1.2,0.,1.2
1980-11-14 00:02:15.390 ,6,0,1.,1.2,0.,1.2,0.,1.2,0.,1.2
1980-11-14 00:02:16.590 ,6,0,0.,1.2,0.,1.2,0.,1.2,0.,1.2
1980-11-14 00:02:17.790 ,6,0,0.,1.2,0.,1.2,0.,1.2,0.,1.2
1980-11-14 00:02:18.990 ,6,0,0.,1.2,0.,1.2,0.,1.2,0.,1.2
1980-11-14 00:02:20.190 ,6,0,0.,1.2,0.,1.2,0.,1.2,0.,1.2
1980-11-14 00:02:21.390 ,6,0,0.,1.2,0.,1.2,0.,1.2,0.,1.2
1980-11-14 00:02:22.590 ,6,0,0.,1.2,0.,1.2,0.,1.2,0.,1.2
1980-11-14 00:02:23.790 ,6,0,0.,1.2,0.,1.2,0.,1.2,1.,1.2
1980-11-14 00:02:24.990 ,6,0,0.,1.2,0.,1.2,0.,1.2,0.,1.2
1980-11-14 00:02:26.190 ,6,0,0.,1.2,0.,1.2,0.,1.2,0.,1.2
1980-11-14 00:02:27.390 ,6,0,0.,1.2,0.,1.2,0.,1.2,0.,1.2
1980-11-14 00:02:28.590 ,6,0,1.,1.2,0.,1.2,0.,1.2,0.,1.2
1980-11-14 00:02:29.790 ,6,0,0.,1.2,0.,1.2,0.,1.2,0.,1.2
1980-11-14 00:02:30.990 ,6,0,0.,1.2,0.,1.2,0.,1.2,0.,1.2
1980-11-14 00:02:32.190 ,6,0,0.,1.2,0.,1.2,0.,1.2,0.,1.2
1980-11-14 00:02:33.390 ,6,0,0.,1.2,0.,1.2,1.,1.2,0.,1.2
1980-11-14 00:02:34.590 ,6,0,0.,1.2,0.,1.2,0.,1.2,0.,1.2
1980-11-14 00:02:35.790 ,6,0,0.,1.2,0.,1.2,0.,1.2,0.,1.2
1980-11-14 00:02:36.990 ,6,0,0.,1.2,0.,1.2,0.,1.2,0.,1.2
1980-11-14 00:02:38.190 ,6,0,0.,1.2,0.,1.2,0.,1.2,0.,1.2
1980-11-14 00:02:39.390 ,6,0,0.,1.2,0.,1.2,0.,1.2,0.,1.2
1980-11-14 00:02:40.590 ,6,0,0.,1.2,0.,1.2,0.,1.2,0.,1.2
1980-11-14 00:02:41.790 ,6,0,0.,1.2,0.,1.2,0.,1.2,0.,1.2
1980-11-14 00:02:42.990 ,6,0,0.,1.2,0.,1.2,0.,1.2,0.,1.2
1980-11-14 00:02:44.190 ,6,0,0.,1.2,0.,1.2,0.,1.2,0.,1.2
1980-11-14 00:02:45.390 ,6,0,0.,1.2,0.,1.2,0.,1.2,0.,1.2
1980-11-14 00:02:46.590 ,6,0,0.,1.2,0.,1.2,0.,1.2,0.,1.2
1980-11-14 00:02:47.790 ,6,0,0.,1.2,0.,1.2,0.,1.2,0.,1.2
1980-11-14 00:02:48.990 ,6,0,0.,1.2,0.,1.2,0.,1.2,0.,1.2
1980-11-14 00:02:50.190 ,6,0,0.,1.2,0.,1.2,0.,1.2,0.,1.2
1980-11-14 00:02:51.390 ,6,0,0.,1.2,0.,1.2,0.,1.2,0.,1.2
1980-11-14 00:02:52.590 ,6,0,1.,1.2,0.,1.2,0.,1.2,0.,1.2
1980-11-14 00:02:53.790 ,6,0,0.,1.2,0.,1.2,0.,1.2,0.,1.2
1980-11-14 00:02:54.990 ,6,0,0.,1.2,0.,1.2,0.,1.2,0.,1.2
1980-11-14 00:02:56.190 ,6,0,0.,1.2,0.,1.2,0.,1.2,0.,1.2
1980-11-14 00:02:57.390 ,6,0,1.,1.2,0.,1.2,0.,1.2,0.,1.2
1980-11-14 00:02:58.590 ,6,0,0.,1.2,0.,1.2,0.,1.2,0.,1.2
1980-11-14 00:02:59.790 ,7,0,1.,1.2,0.,1.2,0.,1.2,0.,1.2
1980-11-14 00:03:00.990 ,7,0,0.,1.2,0.,1.2,0.,1.2,0.,1.2
1980-11-14 00:03:02.190 ,7,0,0.,1.2,0.,1.2,0.,1.2,0.,1.2
1980-11-14 00:03:03.390 ,7,0,1.,1.2,0.,1.2,0.,1.2,0.,1.2
1980-11-14 00:03:04.590 ,7,0,0.,1.2,0.,1.2,0.,1.2,0.,1.2
1980-11-14 00:03:05.790 ,7,0,0.,1.2,0.,1.2,4.,1.2,0.,1.2
1980-11-14 00:03:06.990 ,7,0,0.,1.2,0.,1.2,3.,1.2,0.,1.2
1980-11-14 00:03:08.190 ,7,0,0.,1.2,0.,1.2,5.,1.2,0.,1.2
1980-11-14 00:03:09.390 ,7,0,0.,1.2,0.,1.2,4.,1.2,0.,1.2
1980-11-14 00:03:10.590 ,7,0,1.,1.2,0.,1.2,3.,1.2,0.,1.2
1980-11-14 00:03:11.790 ,7,0,0.,1.2,0.,1.2,4.,1.2,0.,1.2
1980-11-14 00:03:12.990 ,7,0,0.,1.2,0.,1.2,4.,1.2,0.,1.2
1980-11-14 00:03:14.190 ,7,0,0.,1.2,0.,1.2,6.,1.2,0.,1.2
1980-11-14 00:03:15.390 ,7,0,0.,1.2,0.,1.2,4.,1.2,0.,1.2
1980-11-14 00:03:16.590 ,7,0,0.,1.2,0.,1.2,6.,1.2,0.,1.2
1980-11-14 00:03:17.790 ,7,0,0.,1.2,0.,1.2,5.,1.2,1.,1.2
1980-11-14 00:03:18.990 ,7,0,0.,1.2,0.,1.2,5.,1.2,0.,1.2
1980-11-14 00:03:20.190 ,7,0,0.,1.2,0.,1.2,4.,1.2,0.,1.2
1980-11-14 00:03:21.390 ,7,0,0.,1.2,0.,1.2,6.,1.2,0.,1.2
1980-11-14 00:03:22.590 ,7,0,0.,1.2,0.,1.2,4.,1.2,0.,1.2
1980-11-14 00:03:23.790 ,7,0,0.,1.2,0.,1.2,3.,1.2,0.,1.2
1980-11-14 00:03:24.990 ,7,0,0.,1.2,0.,1.2,4.,1.2,0.,1.2
1980-11-14 00:03:26.190 ,7,0,0.,1.2,0.,1.2,5.,1.2,0.,1.2
1980-11-14 00:03:27.390 ,7,0,0.,1.2,0.,1.2,7.,1.2,0.,1.2
1980-11-14 00:03:28.590 ,7,0,0.,1.2,0.,1.2,9.,1.2,0.,1.2
1980-11-14 00:03:29.790 ,7,0,0.,1.2,0.,1.2,4.,1.2,0.,1.2
1980-11-14 00:03:30.990 ,7,0,0.,1.2,0.,1.2,5.,1.2,0.,1.2
1980-11-14 00:03:32.190 ,7,0,0.,1.2,0.,1.2,2.,1.2,0.,1.2
1980-11-14 00:03:33.390 ,7,0,0.,1.2,0.,1.2,6.,1.2,0.,1.2
1980-11-14 00:03:34.590 ,7,0,0.,1.2,0.,1.2,10.,1.2,0.,1.2
1980-11-14 00:03:35.790 ,7,0,0.,1.2,0.,1.2,7.,1.2,0.,1.2
1980-11-14 00:03:36.990 ,7,0,0.,1.2,0.,1.2,3.,1.2,0.,1.2
1980-11-14 00:03:38.190 ,7,0,0.,1.2,0.,1.2,2.,1.2,0.,1.2
1980-11-14 00:03:39.390 ,7,0,0.,1.2,0.,1.2,4.,1.2,0.,1.2
1980-11-14 00:03:40.590 ,7,0,0.,1.2,0.,1.2,7.,1.2,0.,1.2
1980-11-14 00:03:41.790 ,7,0,0.,1.2,0.,1.2,4.,1.2,0.,1.2
1980-11-14 00:03:42.990 ,7,0,0.,1.2,0.,1.2,7.,1.2,0.,1.2
1980-11-14 00:03:44.190 ,7,0,0.,1.2,0.,1.2,1.,1.2,0.,1.2
1980-11-14 00:03:45.390 ,7,0,0.,1.2,0.,1.2,3.,1.2,0.,1.2
1980-11-14 00:03:46.590 ,7,0,0.,1.2,0.,1.2,4.,1.2,0.,1.2
1980-11-14 00:03:47.790 ,7,0,0.,1.2,0.,1.2,7.,1.2,0.,1.2
1980-11-14 00:03:48.990 ,7,0,0.,1.2,0.,1.2,2.,1.2,0.,1.2
1980-11-14 00:03:50.190 ,7,0,0.,1.2,0.,1.2,2.,1.2,0.,1.2
1980-11-14 00:03:51.390 ,7,0,0.,1.2,0.,1.2,2.,1.2,0.,1.2
1980-11-14 00:03:52.590 ,7,0,0.,1.2,0.,1.2,4.,1.2,0.,1.2
1980-11-14 00:03:53.790 ,7,0,0.,1.2,0.,1.2,4.,1.2,0.,1.2
1980-11-14 00:03:54.990 ,7,0,0.,1.2,0.,1.2,4.,1.2,0.,1.2
1980-11-14 00:03:56.190 ,7,0,0.,1.2,0.,1.2,5.,1.2,0.,1.2
1980-11-14 00:03:57.390 ,7,0,0.,1.2,0.,1.2,4.,1.2,0.,1.2
1980-11-14 00:03:58.590 ,7,0,0.,1.2,0.,1.2,3.,1.2,0.,1.2
1980-11-14 00:03:59.790 ,7,0,0.,1.2,0.,1.2,4.,1.2,0.,1.2
1980-11-14 00:04:00.990 ,7,0,0.,1.2,0.,1.2,3.,1.2,0.,1.2
1980-11-14 00:04:02.190 ,7,0,0.,1.2,0.,1.2,5.,1.2,0.,1.2
1980-11-14 00:04:03.390 ,7,0,0.,1.2,0.,1.2,7.,1.2,0.,1.2
1980-11-14 00:04:04.590 ,7,0,0.,1.2,0.,1.2,4.,1.2,0.,1.2
1980-11-14 00:04:05.790 ,7,0,0.,1.2,0.,1.2,8.,1.2,0.,1.2
1980-11-14 00:04:06.990 ,7,0,0.,1.2,0.,1.2,5.,1.2,0.,1.2
1980-11-14 00:04:08.190 ,7,0,0.,1.2,0.,1.2,5.,1.2,0.,1.2
1980-11-14 00:04:09.390 ,7,0,0.,1.2,0.,1.2,3.,1.2,0.,1.2
1980-11-14 00:04:10.590 ,7,0,0.,1.2,0.,1.2,5.,1.2,0.,1.2
1980-11-14 00:04:11.790 ,7,0,0.,1.2,0.,1.2,2.,1.2,0.,1.2
1980-11-14 00:04:12.990 ,7,0,0.,1.2,0.,1.2,9.,1.2,0.,1.2
1980-11-14 00:04:14.190 ,7,0,0.,1.2,0.,1.2,4.,1.2,0.,1.2
1980-11-14 00:04:15.390 ,7,0,0.,1.2,0.,1.2,2.,1.2,0.,1.2
1980-11-14 00:04:16.590 ,7,0,0.,1.2,0.,1.2,9.,1.2,0.,1.2
1980-11-14 00:04:17.790 ,7,0,0.,1.2,0.,1.2,2.,1.2,0.,1.2
1980-11-14 00:04:18.990 ,7,0,0.,1.2,0.,1.2,3.,1.2,0.,1.2
1980-11-14 00:04:20.190 ,7,0,0.,1.2,0.,1.2,6.,1.2,0.,1.2
1980-11-14 00:04:21.390 ,7,0,0.,1.2,0.,1.2,6.,1.2,0.,1.2
1980-11-14 00:04:22.590 ,7,0,0.,1.2,0.,1.2,5.,1.2,0.,1.2
1980-11-14 00:04:23.790 ,7,0,0.,1.2,0.,1.2,7.,1.2,0.,1.2
1980-11-14 00:04:24.990 ,7,0,0.,1.2,0.,1.2,3.,1.2,0.,1.2
1980-11-14 00:04:26.190 ,7,0,0.,1.2,0.,1.2,6.,1.2,0.,1.2
1980-11-14 00:04:27.390 ,7,0,0.,1.2,0.,1.2,3.,1.2,0.,1.2
1980-11-14 00:04:28.590 ,7,0,0.,1.2,0.,1.2,4.,1.2,0.,1.2
1980-11-14 00:04:29.790 ,7,0,0.,1.2,0.,1.2,2.,1.2,0.,1.2
1980-11-14 00:04:30.990 ,7,0,0.,1.2,0.,1.2,4.,1.2,0.,1.2
1980-11-14 00:04:32.190 ,7,0,0.,1.2,0.,1.2,7.,1.2,0.,1.2
1980-11-14 00:04:33.390 ,7,0,0.,1.2,0.,1.2,4.,1.2,0.,1.2
1980-11-14 00:04:34.590 ,7,0,0.,1.2,0.,1.2,5.,1.2,0.,1.2
1980-11-14 00:04:35.790 ,6,0,0.,1.2,0.,1.2,4.,1.2,0.,1.2
1980-11-14 00:04:36.990 ,6,0,0.,1.2,0.,1.2,3.,1.2,0.,1.2
1980-11-14 00:04:38.190 ,6,0,0.,1.2,0.,1.2,5.,1.2,0.,1.2
1980-11-14 00:04:39.390 ,6,0,0.,1.2,0.,1.2,4.,1.2,1.,1.2
1980-11-14 00:04:40.590 ,6,0,0.,1.2,0.,1.2,2.,1.2,0.,1.2
1980-11-14 00:04:41.790 ,6,0,0.,1.2,0.,1.2,4.,1.2,0.,1.2
1980-11-14 00:04:42.990 ,6,0,0.,1.2,0.,1.2,0.,1.2,0.,1.2
1980-11-14 00:04:44.190 ,6,0,0.,1.2,0.,1.2,0.,1.2,0.,1.2
1980-11-14 00:04:45.390 ,6,0,1.,1.2,0.,1.2,0.,1.2,0.,1.2
1980-11-14 00:04:46.590 ,6,0,0.,1.2,0.,1.2,0.,1.2,0.,1.2
1980-11-14 00:04:47.790 ,6,0,0.,1.2,0.,1.2,0.,1.2,0.,1.2
1980-11-14 00:04:48.990 ,6,0,0.,1.2,0.,1.2,0.,1.2,0.,1.2
1980-11-14 00:04:50.190 ,6,0,0.,1.2,0.,1.2,0.,1.2,0.,1.2
1980-11-14 00:04:51.390 ,6,0,0.,1.2,0.,1.2,0.,1.2,0.,1.2
1980-11-14 00:04:52.590 ,6,0,0.,1.2,0.,1.2,0.,1.2,0.,1.2
1980-11-14 00:04:53.790 ,6,0,0.,1.2,0.,1.2,0.,1.2,0.,1.2
1980-11-14 00:04:54.990 ,6,0,0.,1.2,0.,1.2,0.,1.2,0.,1.2
1980-11-14 00:04:56.190 ,6,0,0.,1.2,0.,1.2,0.,1.2,0.,1.2
1980-11-14 00:04:57.390 ,6,0,0.,1.2,0.,1.2,0.,1.2,0.,1.2
1980-11-14 00:04:58.590 ,6,0,0.,1.2,0.,1.2,0.,1.2,0.,1.2
1980-11-14 00:04:59.790 ,6,0,0.,1.2,0.,1.2,0.,1.2,0.,1.2
1980-11-14 00:05:00.990 ,6,0,0.,1.2,0.,1.2,0.,1.2,0.,1.2
1980-11-14 00:05:02.190 ,6,0,0.,1.2,0.,1.2,0.,1.2,0.,1.2
1980-11-14 00:05:03.390 ,6,0,0.,1.2,0.,1.2,0.,1.2,0.,1.2
1980-11-14 00:05:04.590 ,6,0,1.,1.2,0.,1.2,0.,1.2,0.,1.2
1980-11-14 00:05:05.790 ,6,0,0.,1.2,0.,1.2,0.,1.2,0.,1.2
1980-11-14 00:05:06.990 ,6,0,0.,1.2,0.,1.2,0.,1.2,0.,1.2
1980-11-14 00:05:08.190 ,6,0,0.,1.2,0.,1.2,0.,1.2,0.,1.2
1980-11-14 00:05:09.390 ,6,0,1.,1.2,0.,1.2,0.,1.2,0.,1.2
1980-11-14 00:05:10.590 ,6,0,0.,1.2,0.,1.2,0.,1.2,0.,1.2
1980-11-14 00:05:11.790 ,6,0,1.,1.2,0.,1.2,0.,1.2,0.,1.2
1980-11-14 00:05:12.990 ,6,0,0.,1.2,0.,1.2,0.,1.2,0.,1.2
1980-11-14 00:05:14.190 ,6,0,1.,1.2,0.,1.2,0.,1.2,0.,1.2
1980-11-14 00:05:15.390 ,6,0,0.,1.2,0.,1.2,0.,1.2,0.,1.2
1980-11-14 00:05:16.590 ,6,0,0.,1.2,0.,1.2,0.,1.2,0.,1.2
1980-11-14 00:05:17.790 ,6,0,0.,1.2,0.,1.2,0.,1.2,0.,1.2
1980-11-14 00:05:18.990 ,6,0,0.,1.2,0.,1.2,0.,1.2,0.,1.2
1980-11-14 00:05:20.190 ,6,0,0.,1.2,0.,1.2,0.,1.2,0.,1.2
1980-11-14 00:05:21.390 ,6,0,0.,1.2,0.,1.2,0.,1.2,0.,1.2
1980-11-14 00:05:22.590 ,6,0,0.,1.2,0.,1.2,0.,1.2,0.,1.2
1980-11-14 00:05:23.790 ,5,0,0.,1.2,0.,1.2,0.,1.2,0.,1.2
1980-11-14 00:05:24.990 ,5,0,0.,1.2,0.,1.2,0.,1.2,0.,1.2
1980-11-14 00:05:26.190 ,5,0,0.,1.2,0.,1.2,0.,1.2,0.,1.2
1980-11-14 00:05:27.390 ,5,0,1.,1.2,0.,1.2,0.,1.2,0.,1.2
1980-11-14 00:05:28.590 ,5,0,1.,1.2,0.,1.2,0.,1.2,1.,1.2
1980-11-14 00:05:29.790 ,5,0,0.,1.2,0.,1.2,0.,1.2,0.,1.2
1980-11-14 00:05:30.990 ,5,0,0.,1.2,0.,1.2,0.,1.2,0.,1.2
1980-11-14 00:05:32.190 ,5,0,0.,1.2,0.,1.2,0.,1.2,0.,1.2
1980-11-14 00:05:33.390 ,5,0,0.,1.2,0.,1.2,1.,1.2,0.,1.2
1980-11-14 00:05:34.590 ,5,0,1.,1.2,0.,1.2,0.,1.2,0.,1.2
1980-11-14 00:05:35.790 ,5,0,0.,1.2,0.,1.2,0.,1.2,0.,1.2
1980-11-14 00:05:36.990 ,5,0,0.,1.2,0.,1.2,0.,1.2,0.,1.2
1980-11-14 00:05:38.190 ,5,0,0.,1.2,0.,1.2,0.,1.2,0.,1.2
1980-11-14 00:05:39.390 ,5,0,0.,1.2,0.,1.2,0.,1.2,1.,1.2
1980-11-14 00:05:40.590 ,5,0,0.,1.2,0.,1.2,0.,1.2,0.,1.2
1980-11-14 00:05:41.790 ,5,0,0.,1.2,0.,1.2,0.,1.2,0.,1.2
1980-11-14 00:05:42.990 ,5,0,0.,1.2,0.,1.2,0.,1.2,0.,1.2
1980-11-14 00:05:44.190 ,5,0,0.,1.2,0.,1.2,0.,1.2,1.,1.2
1980-11-14 00:05:45.390 ,5,0,0.,1.2,0.,1.2,0.,1.2,0.,1.2
1980-11-14 00:05:46.590 ,5,0,0.,1.2,0.,1.2,0.,1.2,0.,1.2
1980-11-14 00:05:47.790 ,5,0,0.,1.2,0.,1.2,0.,1.2,0.,1.2
1980-11-14 00:05:48.990 ,5,0,0.,1.2,0.,1.2,0.,1.2,0.,1.2
1980-11-14 00:05:50.190 ,5,0,0.,1.2,0.,1.2,0.,1.2,0.,1.2
1980-11-14 00:05:51.390 ,5,0,0.,1.2,0.,1.2,0.,1.2,0.,1.2
1980-11-14 00:05:52.590 ,5,0,0.,1.2,0.,1.2,0.,1.2,0.,1.2
1980-11-14 00:05:53.790 ,5,0,0.,1.2,0.,1.2,0.,1.2,1.,1.2
1980-11-14 00:05:54.990 ,5,0,0.,1.2,0.,1.2,0.,1.2,0.,1.2
1980-11-14 00:05:56.190 ,5,0,0.,1.2,0.,1.2,0.,1.2,0.,1.2
1980-11-14 00:05:57.390 ,5,0,0.,1.2,0.,1.2,0.,1.2,0.,1.2
1980-11-14 00:05:58.590 ,5,0,0.,1.2,0.,1.2,0.,1.2,0.,1.2
1980-11-14 00:05:59.790 ,5,0,0.,1.2,0.,1.2,0.,1.2,0.,1.2
1980-11-14 00:06:00.990 ,5,0,1.,1.2,0.,1.2,0.,1.2,0.,1.2
1980-11-14 00:06:02.190 ,5,0,0.,1.2,0.,1.2,0.,1.2,0.,1.2
1980-11-14 00:06:03.390 ,5,0,0.,1.2,0.,1.2,0.,1.2,0.,1.2
1980-11-14 00:06:04.590 ,5,0,0.,1.2,0.,1.2,0.,1.2,0.,1.2
1980-11-14 00:06:05.790 ,5,0,0.,1.2,0.,1.2,0.,1.2,0.,1.2
1980-11-14 00:06:06.990 ,5,0,0.,1.2,0.,1.2,0.,1.2,0.,1.2
1980-11-14 00:06:08.190 ,5,0,1.,1.2,0.,1.2,0.,1.2,0.,1.2
1980-11-14 00:06:09.390 ,5,0,0.,1.2,0.,1.2,0.,1.2,0.,1.2
1980-11-14 00:06:10.590 ,5,0,0.,1.2,0.,1.2,0.,1.2,0.,1.2
1980-11-14 00:06:11.790 ,4,0,0.,1.2,0.,1.2,0.,1.2,0.,1.2
1980-11-14 00:06:12.990 ,4,0,0.,1.2,0.,1.2,0.,1.2,0.,1.2
1980-11-14 00:06:14.190 ,4,0,0.,1.2,0.,1.2,0.,1.2,0.,1.2
1980-11-14 00:06:15.390 ,4,0,2.,1.2,0.,1.2,0.,1.2,0.,1.2
1980-11-14 00:06:16.590 ,4,0,0.,1.2,0.,1.2,0.,1.2,0.,1.2
1980-11-14 00:06:17.790 ,4,0,0.,1.2,0.,1.2,0.,1.2,0.,1.2
1980-11-14 00:06:18.990 ,4,0,0.,1.2,0.,1.2,0.,1.2,0.,1.2
1980-11-14 00:06:20.190 ,4,0,0.,1.2,0.,1.2,0.,1.2,0.,1.2
1980-11-14 00:06:21.390 ,4,0,0.,1.2,0.,1.2,0.,1.2,0.,1.2
1980-11-14 00:06:22.590 ,4,0,0.,1.2,0.,1.2,0.,1.2,0.,1.2
1980-11-14 00:06:23.790 ,4,0,0.,1.2,0.,1.2,0.,1.2,0.,1.2
1980-11-14 00:06:24.990 ,4,0,0.,1.2,0.,1.2,0.,1.2,0.,1.2
1980-11-14 00:06:26.190 ,4,0,0.,1.2,0.,1.2,0.,1.2,0.,1.2
1980-11-14 00:06:27.390 ,4,0,0.,1.2,0.,1.2,0.,1.2,0.,1.2
1980-11-14 00:06:28.590 ,4,0,0.,1.2,0.,1.2,0.,1.2,0.,1.2
1980-11-14 00:06:29.790 ,4,0,0.,1.2,0.,1.2,0.,1.2,0.,1.2
1980-11-14 00:06:30.990 ,4,0,1.,1.2,0.,1.2,0.,1.2,0.,1.2
1980-11-14 00:06:32.190 ,4,0,0.,1.2,0.,1.2,0.,1.2,0.,1.2
1980-11-14 00:06:33.390 ,4,0,0.,1.2,0.,1.2,0.,1.2,0.,1.2
1980-11-14 00:06:34.590 ,4,0,0.,1.2,0.,1.2,0.,1.2,0.,1.2
1980-11-14 00:06:35.790 ,4,0,0.,1.2,0.,1.2,0.,1.2,0.,1.2
1980-11-14 00:06:36.990 ,4,0,0.,1.2,0.,1.2,0.,1.2,0.,1.2
1980-11-14 00:06:38.190 ,4,0,0.,1.2,0.,1.2,0.,1.2,0.,1.2
1980-11-14 00:06:39.390 ,4,0,0.,1.2,0.,1.2,1.,1.2,0.,1.2
1980-11-14 00:06:40.590 ,4,0,0.,1.2,0.,1.2,0.,1.2,0.,1.2
1980-11-14 00:06:41.790 ,4,0,0.,1.2,0.,1.2,0.,1.2,0.,1.2
1980-11-14 00:06:42.990 ,4,0,0.,1.2,0.,1.2,0.,1.2,0.,1.2
1980-11-14 00:06:44.190 ,4,0,0.,1.2,0.,1.2,0.,1.2,0.,1.2
1980-11-14 00:06:45.390 ,4,0,0.,1.2,0.,1.2,0.,1.2,0.,1.2
1980-11-14 00:06:46.590 ,4,0,0.,1.2,0.,1.2,0.,1.2,0.,1.2
1980-11-14 00:06:47.790 ,4,0,1.,1.2,0.,1.2,0.,1.2,0.,1.2
1980-11-14 00:06:48.990 ,4,0,0.,1.2,0.,1.2,0.,1.2,0.,1.2
1980-11-14 00:06:50.190 ,4,0,0.,1.2,0.,1.2,0.,1.2,0.,1.2
1980-11-14 00:06:51.390 ,4,0,1.,1.2,0.,1.2,0.,1.2,0.,1.2
1980-11-14 00:06:52.590 ,4,0,0.,1.2,0.,1.2,0.,1.2,0.,1.2
1980-11-14 00:06:53.790 ,4,0,1.,1.2,0.,1.2,0.,1.2,0.,1.2
1980-11-14 00:06:54.990 ,4,0,0.,1.2,0.,1.2,0.,1.2,0.,1.2
1980-11-14 00:06:56.190 ,4,0,0.,1.2,0.,1.2,0.,1.2,0.,1.2
1980-11-14 00:06:57.390 ,4,0,0.,1.2,0.,1.2,0.,1.2,0.,1.2
1980-11-14 00:06:58.590 ,4,0,2.,1.2,0.,1.2,0.,1.2,0.,1.2
1980-11-14 00:06:59.790 ,3,0,0.,1.2,0.,1.2,0.,1.2,0.,1.2
1980-11-14 00:07:00.990 ,3,0,1.,1.2,0.,1.2,0.,1.2,0.,1.2
1980-11-14 00:07:02.190 ,3,0,1.,1.2,0.,1.2,0.,1.2,0.,1.2
1980-11-14 00:07:03.390 ,3,0,0.,1.2,0.,1.2,0.,1.2,0.,1.2
1980-11-14 00:07:04.590 ,3,0,0.,1.2,0.,1.2,0.,1.2,0.,1.2
1980-11-14 00:07:05.790 ,3,0,0.,1.2,0.,1.2,0.,1.2,0.,1.2
1980-11-14 00:07:06.990 ,3,0,0.,1.2,0.,1.2,0.,1.2,0.,1.2
1980-11-14 00:07:08.190 ,3,0,0.,1.2,0.,1.2,0.,1.2,0.,1.2
1980-11-14 00:07:09.390 ,3,0,0.,1.2,0.,1.2,0.,1.2,1.,1.2
1980-11-14 00:07:10.590 ,3,0,1.,1.2,0.,1.2,0.,1.2,0.,1.2
1980-11-14 00:07:11.790 ,3,0,0.,1.2,0.,1.2,0.,1.2,0.,1.2
1980-11-14 00:07:12.990 ,3,0,1.,1.2,0.,1.2,0.,1.2,0.,1.2
1980-11-14 00:07:14.190 ,3,0,1.,1.2,0.,1.2,0.,1.2,0.,1.2
1980-11-14 00:07:15.390 ,3,0,0.,1.2,0.,1.2,0.,1.2,0.,1.2
1980-11-14 00:07:16.590 ,3,0,0.,1.2,0.,1.2,0.,1.2,0.,1.2
1980-11-14 00:07:17.790 ,3,0,0.,1.2,0.,1.2,0.,1.2,0.,1.2
1980-11-14 00:07:18.990 ,3,0,0.,1.2,0.,1.2,0.,1.2,0.,1.2
1980-11-14 00:07:20.190 ,3,0,0.,1.2,0.,1.2,0.,1.2,0.,1.2
1980-11-14 00:07:21.390 ,3,0,1.,1.2,0.,1.2,0.,1.2,0.,1.2
1980-11-14 00:07:22.590 ,3,0,0.,1.2,0.,1.2,0.,1.2,0.,1.2
1980-11-14 00:07:23.790 ,3,0,0.,1.2,0.,1.2,0.,1.2,0.,1.2
1980-11-14 00:07:24.990 ,3,0,0.,1.2,0.,1.2,0.,1.2,0.,1.2
1980-11-14 00:07:26.190 ,3,0,0.,1.2,0.,1.2,0.,1.2,0.,1.2
1980-11-14 00:07:27.390 ,3,0,0.,1.2,0.,1.2,0.,1.2,0.,1.2
1980-11-14 00:07:28.590 ,3,0,2.,1.2,0.,1.2,0.,1.2,0.,1.2
1980-11-14 00:07:29.790 ,3,0,1.,1.2,0.,1.2,0.,1.2,0.,1.2
1980-11-14 00:07:30.990 ,3,0,1.,1.2,0.,1.2,0.,1.2,0.,1.2
1980-11-14 00:07:32.190 ,3,0,0.,1.2,0.,1.2,0.,1.2,0.,1.2
1980-11-14 00:07:33.390 ,3,0,0.,1.2,0.,1.2,0.,1.2,0.,1.2
1980-11-14 00:07:34.590 ,3,0,0.,1.2,0.,1.2,0.,1.2,0.,1.2
1980-11-14 00:07:35.790 ,3,0,0.,1.2,0.,1.2,0.,1.2,0.,1.2
1980-11-14 00:07:36.990 ,3,0,0.,1.2,0.,1.2,0.,1.2,0.,1.2
1980-11-14 00:07:38.190 ,3,0,0.,1.2,0.,1.2,0.,1.2,0.,1.2
1980-11-14 00:07:39.390 ,3,0,0.,1.2,0.,1.2,0.,1.2,0.,1.2
1980-11-14 00:07:40.590 ,3,0,0.,1.2,0.,1.2,0.,1.2,0.,1.2
1980-11-14 00:07:41.790 ,3,0,1.,1.2,0.,1.2,0.,1.2,0.,1.2
1980-11-14 00:07:42.990 ,3,0,0.,1.2,0.,1.2,0.,1.2,0.,1.2
1980-11-14 00:07:44.190 ,3,0,0.,1.2,0.,1.2,0.,1.2,0.,1.2
1980-11-14 00:07:45.390 ,3,0,0.,1.2,0.,1.2,0.,1.2,0.,1.2
1980-11-14 00:07:46.590 ,3,0,1.,1.2,0.,1.2,0.,1.2,0.,1.2
1980-11-14 00:07:47.790 ,2,0,0.,1.2,0.,1.2,0.,1.2,0.,1.2
1980-11-14 00:07:48.990 ,2,0,0.,1.2,0.,1.2,0.,1.2,0.,1.2
1980-11-14 00:07:50.190 ,2,0,0.,1.2,0.,1.2,0.,1.2,0.,1.2
1980-11-14 00:07:51.390 ,2,0,1.,1.2,0.,1.2,0.,1.2,0.,1.2
1980-11-14 00:07:52.590 ,2,0,1.,1.2,0.,1.2,0.,1.2,0.,1.2
1980-11-14 00:07:53.790 ,2,0,0.,1.2,0.,1.2,0.,1.2,0.,1.2
1980-11-14 00:07:54.990 ,2,0,0.,1.2,0.,1.2,0.,1.2,0.,1.2
1980-11-14 00:07:56.190 ,2,0,0.,1.2,0.,1.2,0.,1.2,0.,1.2
1980-11-14 00:07:57.390 ,2,0,0.,1.2,0.,1.2,0.,1.2,0.,1.2
1980-11-14 00:07:58.590 ,2,0,0.,1.2,0.,1.2,0.,1.2,0.,1.2
1980-11-14 00:07:59.790 ,2,0,0.,1.2,0.,1.2,0.,1.2,0.,1.2
1980-11-14 00:08:00.990 ,2,0,0.,1.2,0.,1.2,0.,1.2,0.,1.2
1980-11-14 00:08:02.190 ,2,0,1.,1.2,0.,1.2,0.,1.2,0.,1.2
1980-11-14 00:08:03.390 ,2,0,0.,1.2,0.,1.2,0.,1.2,0.,1.2
1980-11-14 00:08:04.590 ,2,0,0.,1.2,0.,1.2,0.,1.2,0.,1.2
1980-11-14 00:08:05.790 ,2,0,0.,1.2,0.,1.2,0.,1.2,0.,1.2
1980-11-14 00:08:06.990 ,2,0,0.,1.2,0.,1.2,0.,1.2,0.,1.2
1980-11-14 00:08:08.190 ,2,0,0.,1.2,0.,1.2,0.,1.2,0.,1.2
1980-11-14 00:08:09.390 ,2,0,1.,1.2,0.,1.2,0.,1.2,0.,1.2
1980-11-14 00:08:10.590 ,2,0,0.,1.2,0.,1.2,0.,1.2,0.,1.2
1980-11-14 00:08:11.790 ,2,0,0.,1.2,0.,1.2,0.,1.2,0.,1.2
1980-11-14 00:08:12.990 ,2,0,0.,1.2,0.,1.2,0.,1.2,0.,1.2
1980-11-14 00:08:14.190 ,2,0,2.,1.2,0.,1.2,0.,1.2,0.,1.2
1980-11-14 00:08:15.390 ,2,0,0.,1.2,0.,1.2,0.,1.2,0.,1.2
1980-11-14 00:08:16.590 ,2,0,0.,1.2,0.,1.2,0.,1.2,0.,1.2
1980-11-14 00:08:17.790 ,2,0,0.,1.2,0.,1.2,0.,1.2,0.,1.2
1980-11-14 00:08:18.990 ,2,0,0.,1.2,0.,1.2,0.,1.2,0.,1.2
1980-11-14 00:08:20.190 ,2,0,0.,1.2,0.,1.2,0.,1.2,0.,1.2
1980-11-14 00:08:21.390 ,2,0,0.,1.2,0.,1.2,0.,1.2,0.,1.2
1980-11-14 00:08:22.590 ,2,0,1.,1.2,0.,1.2,0.,1.2,0.,1.2
1980-11-14 00:08:23.790 ,2,0,0.,1.2,0.,1.2,0.,1.2,0.,1.2
1980-11-14 00:08:24.990 ,2,0,1.,1.2,0.,1.2,0.,1.2,0.,1.2